time, Switch, Flow(0), Analog(2)
yyyy/mm/dd HH:MM:SS.fff, True=FILTERED|False=TOTAL, L/min, V
2023/07/04 22:00:04.804, True, 1.326, 0.151369
2023/07/04 22:00:05.300, True, 1.011, 0.152514
2023/07/04 22:00:05.804, True, 0.995, 0.153582
2023/07/04 22:00:06.308, True, 0.663, 0.150607
2023/07/04 22:00:06.804, True, 1.013, 0.153429
2023/07/04 22:00:07.308, True, 0.663, 0.152285
2023/07/04 22:00:07.811, True, 0.993, 0.152361
2023/07/04 22:00:08.308, True, 0.674, 0.150530
2023/07/04 22:00:08.812, True, 0.995, 0.152667
2023/07/04 22:00:09.308, True, 0.674, 0.154269
2023/07/04 22:00:09.812, True, 0.995, 0.152209
2023/07/04 22:00:10.316, True, 0.663, 0.152743
2023/07/04 22:00:10.820, True, 0.663, 0.153429
2023/07/04 22:00:11.316, True, 1.011, 0.152285
2023/07/04 22:00:11.820, True, 0.663, 0.151675
2023/07/04 22:00:12.324, True, 0.995, 0.152972
2023/07/04 22:00:12.820, True, 0.674, 0.152514
2023/07/04 22:00:13.324, True, 0.663, 0.152667
2023/07/04 22:00:13.820, True, 0.674, 0.154803
2023/07/04 22:00:14.324, True, 0.995, 0.152743
2023/07/04 22:00:14.828, True, 0.663, 0.151293
2023/07/04 22:00:15.332, True, 0.664, 0.151751
2023/07/04 22:00:15.828, True, 1.009, 0.154192
2023/07/04 22:00:16.332, True, 0.663, 0.152590
2023/07/04 22:00:16.836, True, 0.995, 0.151293
2023/07/04 22:00:17.332, True, 0.674, 0.154955
2023/07/04 22:00:17.835, True, 0.663, 0.154421
2023/07/04 22:00:18.340, True, 0.996, 0.153277
2023/07/04 22:00:18.836, True, 0.673, 0.150912
2023/07/04 22:00:19.340, True, 0.663, 0.150301
2023/07/04 22:00:19.844, True, 0.996, 0.154803
2023/07/04 22:00:20.340, True, 0.673, 0.153277
2023/07/04 22:00:20.844, True, 0.663, 0.152590
2023/07/04 22:00:21.348, True, 0.995, 0.151980
2023/07/04 22:00:21.844, True, 0.674, 0.151217
2023/07/04 22:00:22.348, True, 0.996, 0.152056
2023/07/04 22:00:22.852, True, 0.662, 0.152590
2023/07/04 22:00:23.348, True, 0.674, 0.153658
2023/07/04 22:00:23.852, True, 0.663, 0.153353
2023/07/04 22:00:24.356, True, 0.995, 0.150607
2023/07/04 22:00:24.852, True, 0.674, 0.153048
2023/07/04 22:00:25.356, True, 0.995, 0.152819
2023/07/04 22:00:25.860, True, 0.663, 0.152743
2023/07/04 22:00:26.356, True, 0.674, 0.155795
2023/07/04 22:00:26.860, True, 0.995, 0.153124
2023/07/04 22:00:27.364, True, 0.663, 0.153582
2023/07/04 22:00:27.860, True, 0.674, 0.154269
2023/07/04 22:00:28.364, True, 0.663, 0.153277
2023/07/04 22:00:28.860, True, 1.011, 0.151293
2023/07/04 22:00:29.364, True, 0.663, 0.154650
2023/07/04 22:00:29.868, True, 0.995, 0.152285
2023/07/04 22:00:30.364, True, 0.674, 0.151751
2023/07/04 22:00:30.868, True, 0.664, 0.152361
2023/07/04 22:00:31.372, True, 0.993, 0.150912
2023/07/04 22:00:31.868, True, 0.674, 0.152972
2023/07/04 22:00:32.372, True, 0.663, 0.154116
2023/07/04 22:00:32.876, True, 0.995, 0.151522
2023/07/04 22:00:33.372, True, 0.674, 0.153582
2023/07/04 22:00:33.876, True, 0.663, 0.152132
2023/07/04 22:00:34.380, True, 0.995, 0.151369
2023/07/04 22:00:34.876, True, 0.674, 0.152895
2023/07/04 22:00:35.379, True, 0.995, 0.153048
2023/07/04 22:00:35.884, True, 0.664, 0.151446
2023/07/04 22:00:36.380, True, 0.673, 0.150072
2023/07/04 22:00:36.883, True, 0.995, 0.150530
2023/07/04 22:00:37.379, True, 0.674, 0.152438
2023/07/04 22:00:37.884, True, 0.663, 0.151598
2023/07/04 22:00:38.387, True, 0.995, 0.154574
2023/07/04 22:00:38.891, True, 0.663, 0.152438
2023/07/04 22:00:39.387, True, 0.674, 0.154269
2023/07/04 22:00:39.891, True, 0.995, 0.152819
2023/07/04 22:00:40.395, True, 0.663, 0.152438
2023/07/04 22:00:40.891, True, 1.011, 0.151980
2023/07/04 22:00:41.396, True, 0.663, 0.153124
2023/07/04 22:00:41.900, True, 0.663, 0.151522
2023/07/04 22:00:42.395, True, 1.011, 0.154116
2023/07/04 22:00:42.900, True, 0.663, 0.153124
2023/07/04 22:00:43.404, True, 0.665, 0.152514
2023/07/04 22:00:43.900, True, 1.009, 0.151598
2023/07/04 22:00:44.403, True, 0.663, 0.151522
2023/07/04 22:00:44.908, True, 0.665, 0.152209
2023/07/04 22:00:45.404, True, 0.673, 0.151827
2023/07/04 22:00:45.908, True, 0.996, 0.153048
2023/07/04 22:00:46.412, True, 0.663, 0.152667
2023/07/04 22:00:46.908, True, 0.674, 0.153429
2023/07/04 22:00:47.412, True, 0.994, 0.152132
2023/07/04 22:00:47.908, True, 0.674, 0.154803
2023/07/04 22:00:48.412, True, 0.997, 0.154116
2023/07/04 22:00:48.916, True, 0.662, 0.152361
2023/07/04 22:00:49.412, True, 0.674, 0.153582
2023/07/04 22:00:49.916, True, 0.996, 0.153582
2023/07/04 22:00:50.420, True, 0.663, 0.153124
2023/07/04 22:00:50.916, True, 0.674, 0.153201
2023/07/04 22:00:51.420, True, 0.662, 0.152438
2023/07/04 22:00:51.924, True, 0.996, 0.153124
2023/07/04 22:00:52.420, True, 0.674, 0.153277
2023/07/04 22:00:52.924, True, 0.663, 0.152514
2023/07/04 22:00:53.428, True, 0.994, 0.152361
2023/07/04 22:00:53.932, True, 0.663, 0.151904
2023/07/04 22:00:54.428, True, 0.675, 0.153735
2023/07/04 22:00:54.931, True, 0.995, 0.151751
2023/07/04 22:00:55.436, True, 0.662, 0.154269
2023/07/04 22:00:55.932, True, 0.674, 0.154345
2023/07/04 22:00:56.436, True, 0.996, 0.152438
2023/07/04 22:00:56.940, True, 0.662, 0.151980
2023/07/04 22:00:57.435, True, 0.675, 0.153124
2023/07/04 22:00:57.940, True, 0.662, 0.152819
2023/07/04 22:00:58.444, True, 0.996, 0.154498
2023/07/04 22:00:58.940, True, 0.674, 0.155337
2023/07/04 22:00:59.444, True, 0.993, 0.152819
2023/07/04 22:00:59.948, True, 0.663, 0.153124
2023/07/04 22:01:00.444, True, 0.674, 0.151598
2023/07/04 22:01:00.948, True, 0.663, 0.151369
2023/07/04 22:01:01.452, True, 0.995, 0.153735
2023/07/04 22:01:01.948, True, 0.674, 0.153582
2023/07/04 22:01:02.452, True, 0.995, 0.152819
2023/07/04 22:01:02.956, True, 0.663, 0.154421
2023/07/04 22:01:03.452, True, 0.674, 0.150530
2023/07/04 22:01:03.956, True, 0.663, 0.153277
2023/07/04 22:01:04.460, True, 0.995, 0.153964
2023/07/04 22:01:04.956, True, 0.674, 0.152132
2023/07/04 22:01:05.460, True, 0.663, 0.153658
2023/07/04 22:01:05.956, True, 1.011, 0.153735
2023/07/04 22:01:06.460, True, 0.663, 0.152895
2023/07/04 22:01:06.964, True, 0.663, 0.152895
2023/07/04 22:01:07.460, True, 1.010, 0.151980
2023/07/04 22:01:07.964, True, 0.664, 0.153201
2023/07/04 22:01:08.468, True, 0.994, 0.152819
2023/07/04 22:01:08.963, True, 0.674, 0.154879
2023/07/04 22:01:09.468, True, 0.663, 0.153658
2023/07/04 22:01:09.972, True, 0.995, 0.152667
2023/07/04 22:01:10.468, True, 0.674, 0.152743
2023/07/04 22:01:10.972, True, 0.663, 0.153658
2023/07/04 22:01:11.476, True, 0.664, 0.153277
2023/07/04 22:01:11.971, True, 1.009, 0.156558
2023/07/04 22:01:12.475, True, 0.664, 0.154574
2023/07/04 22:01:12.980, True, 0.663, 0.153811
2023/07/04 22:01:13.476, True, 1.012, 0.154116
2023/07/04 22:01:13.980, True, 0.663, 0.154116
2023/07/04 22:01:14.484, True, 0.662, 0.153658
2023/07/04 22:01:14.980, True, 1.011, 0.153735
2023/07/04 22:01:15.484, True, 0.663, 0.152667
2023/07/04 22:01:15.988, True, 0.995, 0.155795
2023/07/04 22:01:16.484, True, 0.674, 0.155413
2023/07/04 22:01:16.988, True, 0.663, 0.155871
2023/07/04 22:01:17.484, True, 0.674, 0.153582
2023/07/04 22:01:17.988, True, 0.995, 0.152895
2023/07/04 22:01:18.492, True, 0.663, 0.155795
2023/07/04 22:01:18.988, True, 0.674, 0.155566
2023/07/04 22:01:19.492, True, 0.995, 0.158312
2023/07/04 22:01:19.996, True, 0.663, 0.154955
2023/07/04 22:01:20.492, True, 0.674, 0.154269
2023/07/04 22:01:20.996, True, 0.995, 0.155718
2023/07/04 22:01:21.499, True, 0.663, 0.154574
2023/07/04 22:01:21.996, True, 0.674, 0.157015
2023/07/04 22:01:22.500, True, 0.995, 0.157092
2023/07/04 22:01:23.004, True, 0.663, 0.155642
2023/07/04 22:01:23.500, True, 1.011, 0.155261
2023/07/04 22:01:24.004, True, 0.663, 0.155566
2023/07/04 22:01:24.508, True, 0.663, 0.155718
2023/07/04 22:01:25.004, True, 1.011, 0.157549
2023/07/04 22:01:25.508, True, 0.663, 0.156252
2023/07/04 22:01:26.012, True, 0.663, 0.156863
2023/07/04 22:01:26.508, True, 1.011, 0.159457
2023/07/04 22:01:27.012, True, 0.663, 0.154955
2023/07/04 22:01:27.508, True, 1.011, 0.155795
2023/07/04 22:01:28.012, True, 0.663, 0.157626
2023/07/04 22:01:28.516, True, 0.663, 0.158770
2023/07/04 22:01:29.020, True, 0.995, 0.157015
2023/07/04 22:01:29.516, True, 0.674, 0.158694
2023/07/04 22:01:30.020, True, 0.663, 0.155032
2023/07/04 22:01:30.516, True, 1.010, 0.158770
2023/07/04 22:01:31.020, True, 0.663, 0.157092
2023/07/04 22:01:31.524, True, 0.663, 0.158236
2023/07/04 22:01:32.020, True, 0.674, 0.158083
2023/07/04 22:01:32.524, True, 0.995, 0.157473
2023/07/04 22:01:33.028, True, 0.663, 0.157092
2023/07/04 22:01:33.524, True, 0.674, 0.158618
2023/07/04 22:01:34.028, True, 0.995, 0.158389
2023/07/04 22:01:34.532, True, 0.663, 0.157092
2023/07/04 22:01:35.028, True, 0.674, 0.159991
2023/07/04 22:01:35.532, True, 0.995, 0.158465
2023/07/04 22:01:36.036, True, 0.663, 0.159838
2023/07/04 22:01:36.532, True, 0.674, 0.158160
2023/07/04 22:01:37.035, True, 0.995, 0.159304
2023/07/04 22:01:37.540, True, 0.663, 0.158541
2023/07/04 22:01:38.036, True, 0.674, 0.157931
2023/07/04 22:01:38.540, True, 0.663, 0.160296
2023/07/04 22:01:39.044, True, 0.995, 0.159075
2023/07/04 22:01:39.540, True, 0.674, 0.158618
2023/07/04 22:01:40.044, True, 0.663, 0.157397
2023/07/04 22:01:40.548, True, 0.995, 0.158083
2023/07/04 22:01:41.044, True, 0.674, 0.160830
2023/07/04 22:01:41.548, True, 0.663, 0.158923
2023/07/04 22:01:42.052, True, 0.663, 0.159228
2023/07/04 22:01:42.548, True, 1.011, 0.158846
2023/07/04 22:01:43.052, True, 0.663, 0.158007
2023/07/04 22:01:43.556, True, 0.663, 0.159991
2023/07/04 22:01:44.052, True, 1.011, 0.160449
2023/07/04 22:01:44.556, True, 0.663, 0.159152
2023/07/04 22:01:45.060, True, 0.663, 0.158846
2023/07/04 22:01:45.556, True, 1.011, 0.158999
2023/07/04 22:01:46.059, True, 0.663, 0.157931
2023/07/04 22:01:46.556, True, 0.674, 0.161898
2023/07/04 22:01:47.060, True, 0.995, 0.161517
2023/07/04 22:01:47.564, True, 0.663, 0.161288
2023/07/04 22:01:48.060, True, 0.674, 0.158618
2023/07/04 22:01:48.564, True, 0.663, 0.158389
2023/07/04 22:01:49.068, True, 0.995, 0.160906
2023/07/04 22:01:49.564, True, 0.673, 0.159762
2023/07/04 22:01:50.068, True, 0.663, 0.161593
2023/07/04 22:01:50.572, True, 0.995, 0.160143
2023/07/04 22:01:51.068, True, 0.674, 0.161517
2023/07/04 22:01:51.572, True, 0.663, 0.160906
2023/07/04 22:01:52.068, True, 1.011, 0.160067
2023/07/04 22:01:52.572, True, 0.663, 0.159686
2023/07/04 22:01:53.076, True, 0.664, 0.161059
2023/07/04 22:01:53.580, True, 0.993, 0.161593
2023/07/04 22:01:54.076, True, 0.674, 0.160525
2023/07/04 22:01:54.580, True, 0.995, 0.160296
2023/07/04 22:01:55.084, True, 0.663, 0.160067
2023/07/04 22:01:55.580, True, 0.674, 0.161593
2023/07/04 22:01:56.084, True, 0.664, 0.159380
2023/07/04 22:01:56.588, True, 0.995, 0.160296
2023/07/04 22:01:57.092, True, 0.663, 0.160372
2023/07/04 22:01:57.588, True, 0.674, 0.159228
2023/07/04 22:01:58.091, True, 0.663, 0.159686
2023/07/04 22:01:58.596, True, 0.996, 0.161822
2023/07/04 22:01:59.092, True, 0.674, 0.158541
2023/07/04 22:01:59.595, True, 0.663, 0.161669
2023/07/04 22:02:00.100, True, 0.995, 0.159686
2023/07/04 22:02:00.596, True, 0.675, 0.158618
2023/07/04 22:02:01.100, True, 0.994, 0.161440
2023/07/04 22:02:01.595, True, 0.674, 0.160525
2023/07/04 22:02:02.100, True, 0.663, 0.159075
2023/07/04 22:02:02.603, True, 0.995, 0.159228
2023/07/04 22:02:03.099, True, 0.674, 0.159915
2023/07/04 22:02:03.604, True, 0.663, 0.160296
2023/07/04 22:02:04.107, True, 0.995, 0.159762
2023/07/04 22:02:04.603, True, 0.674, 0.161364
2023/07/04 22:02:05.108, True, 0.663, 0.159609
2023/07/04 22:02:05.612, True, 0.663, 0.158618
2023/07/04 22:02:06.108, True, 0.674, 0.160220
2023/07/04 22:02:06.612, True, 0.994, 0.157855
2023/07/04 22:02:07.116, True, 0.663, 0.160449
2023/07/04 22:02:07.612, True, 0.674, 0.160601
2023/07/04 22:02:08.116, True, 0.995, 0.159304
2023/07/04 22:02:08.612, True, 0.674, 0.158541
2023/07/04 22:02:09.116, True, 0.665, 0.160220
2023/07/04 22:02:09.619, True, 0.662, 0.160906
2023/07/04 22:02:10.124, True, 0.995, 0.160983
2023/07/04 22:02:10.620, True, 0.674, 0.160296
2023/07/04 22:02:11.124, True, 0.995, 0.160525
2023/07/04 22:02:11.620, True, 0.674, 0.159762
2023/07/04 22:02:12.123, True, 0.663, 0.159838
2023/07/04 22:02:12.628, True, 0.663, 0.161822
2023/07/04 22:02:13.124, True, 1.011, 0.159380
2023/07/04 22:02:13.628, True, 0.663, 0.160525
2023/07/04 22:02:14.131, True, 0.663, 0.159152
2023/07/04 22:02:14.636, True, 0.994, 0.160601
2023/07/04 22:02:15.131, True, 0.674, 0.159075
2023/07/04 22:02:15.635, True, 0.663, 0.160067
2023/07/04 22:02:16.140, True, 0.663, 0.161059
2023/07/04 22:02:16.636, True, 0.674, 0.158541
2023/07/04 22:02:17.139, True, 0.995, 0.162203
2023/07/04 22:02:17.643, True, 0.663, 0.160601
2023/07/04 22:02:18.148, True, 0.664, 0.163577
2023/07/04 22:02:18.644, True, 1.011, 0.159228
2023/07/04 22:02:19.148, True, 0.662, 0.159915
2023/07/04 22:02:19.652, True, 0.664, 0.160525
2023/07/04 22:02:20.148, True, 1.009, 0.161364
2023/07/04 22:02:20.652, True, 0.663, 0.160906
2023/07/04 22:02:21.155, True, 0.663, 0.160754
2023/07/04 22:02:21.660, True, 0.664, 0.159762
2023/07/04 22:02:22.156, True, 1.010, 0.158923
2023/07/04 22:02:22.660, True, 0.662, 0.159838
2023/07/04 22:02:23.164, True, 0.663, 0.161364
2023/07/04 22:02:23.659, True, 0.674, 0.158694
2023/07/04 22:02:24.164, True, 0.994, 0.159380
2023/07/04 22:02:24.667, True, 0.663, 0.158999
2023/07/04 22:02:25.172, True, 0.996, 0.160601
2023/07/04 22:02:25.667, True, 0.674, 0.161746
2023/07/04 22:02:26.172, True, 0.663, 0.162737
2023/07/04 22:02:26.675, True, 0.665, 0.159152
2023/07/04 22:02:27.172, True, 1.009, 0.159686
2023/07/04 22:02:27.676, True, 0.663, 0.159533
2023/07/04 22:02:28.180, True, 0.663, 0.160525
2023/07/04 22:02:28.676, True, 1.011, 0.159380
2023/07/04 22:02:29.180, True, 0.663, 0.160601
2023/07/04 22:02:29.684, True, 0.663, 0.159609
2023/07/04 22:02:30.179, True, 0.674, 0.161364
2023/07/04 22:02:30.684, True, 0.995, 0.159686
2023/07/04 22:02:31.188, True, 0.663, 0.159228
2023/07/04 22:02:31.684, True, 0.674, 0.160143
2023/07/04 22:02:32.188, True, 0.996, 0.160220
2023/07/04 22:02:32.692, True, 0.663, 0.161822
2023/07/04 22:02:33.188, True, 0.674, 0.159380
2023/07/04 22:02:33.692, True, 0.993, 0.159686
2023/07/04 22:02:34.196, True, 0.663, 0.161440
2023/07/04 22:02:34.692, True, 0.674, 0.160754
2023/07/04 22:02:35.196, True, 0.995, 0.160754
2023/07/04 22:02:35.700, True, 0.663, 0.160830
2023/07/04 22:02:36.196, True, 0.674, 0.161898
2023/07/04 22:02:36.700, True, 0.995, 0.157168
2023/07/04 22:02:37.204, True, 0.663, 0.159686
2023/07/04 22:02:37.700, True, 0.674, 0.160449
2023/07/04 22:02:38.204, True, 0.994, 0.160678
2023/07/04 22:02:38.708, True, 0.664, 0.159152
2023/07/04 22:02:39.212, True, 0.994, 0.161212
2023/07/04 22:02:39.708, True, 0.674, 0.157244
2023/07/04 22:02:40.211, True, 0.664, 0.160983
2023/07/04 22:02:40.716, True, 0.993, 0.159304
2023/07/04 22:02:41.212, True, 0.674, 0.158999
2023/07/04 22:02:41.715, True, 0.664, 0.160067
2023/07/04 22:02:42.212, True, 1.009, 0.158465
2023/07/04 22:02:42.716, True, 0.663, 0.158694
2023/07/04 22:02:43.220, True, 0.995, 0.160830
2023/07/04 22:02:43.724, True, 0.664, 0.161746
2023/07/04 22:02:44.220, True, 1.010, 0.160143
2023/07/04 22:02:44.723, True, 0.664, 0.160143
2023/07/04 22:02:45.228, True, 0.662, 0.159075
2023/07/04 22:02:45.724, True, 0.674, 0.159152
2023/07/04 22:02:46.228, True, 0.995, 0.159609
2023/07/04 22:02:46.732, True, 0.663, 0.158389
2023/07/04 22:02:47.228, True, 0.674, 0.160220
2023/07/04 22:02:47.731, True, 0.994, 0.159152
2023/07/04 22:02:48.236, True, 0.663, 0.160601
2023/07/04 22:02:48.732, True, 0.674, 0.159991
2023/07/04 22:02:49.236, True, 0.994, 0.161135
2023/07/04 22:02:49.740, True, 0.663, 0.158770
2023/07/04 22:02:50.236, True, 0.674, 0.161593
2023/07/04 22:02:50.740, True, 0.995, 0.158541
2023/07/04 22:02:51.244, True, 0.663, 0.160830
2023/07/04 22:02:51.740, True, 0.675, 0.158618
2023/07/04 22:02:52.244, True, 0.993, 0.160067
2023/07/04 22:02:52.748, True, 0.663, 0.160983
2023/07/04 22:02:53.252, True, 0.664, 0.161059
2023/07/04 22:02:53.748, True, 0.673, 0.158083
2023/07/04 22:02:54.252, True, 0.995, 0.161746
2023/07/04 22:02:54.748, True, 0.674, 0.158618
2023/07/04 22:02:55.251, True, 0.663, 0.159304
2023/07/04 22:02:55.756, True, 0.995, 0.158465
2023/07/04 22:02:56.252, True, 0.674, 0.160754
2023/07/04 22:02:56.756, True, 0.663, 0.159991
2023/07/04 22:02:57.260, True, 0.995, 0.159075
2023/07/04 22:02:57.756, True, 0.674, 0.161593
2023/07/04 22:02:58.260, True, 0.663, 0.159075
2023/07/04 22:02:58.764, True, 0.663, 0.160372
2023/07/04 22:02:59.260, True, 1.011, 0.161135
2023/07/04 22:02:59.763, True, 0.663, 0.161212
2023/07/04 22:03:00.268, True, 0.664, 0.159762
2023/07/04 22:03:00.764, True, 1.010, 0.158999
2023/07/04 22:03:01.268, True, 0.663, 0.159762
2023/07/04 22:03:01.764, True, 0.674, 0.158999
2023/07/04 22:03:02.268, True, 0.995, 0.160296
2023/07/04 22:03:02.772, True, 0.663, 0.162356
2023/07/04 22:03:03.268, True, 0.674, 0.161593
2023/07/04 22:03:03.772, True, 0.997, 0.163195
2023/07/04 22:03:04.276, True, 0.662, 0.160067
2023/07/04 22:03:04.772, True, 0.674, 0.159152
2023/07/04 22:03:05.276, True, 0.995, 0.158236
2023/07/04 22:03:05.780, True, 0.663, 0.159762
2023/07/04 22:03:06.275, True, 0.674, 0.159152
2023/07/04 22:03:06.780, True, 0.663, 0.157855
2023/07/04 22:03:07.284, True, 0.995, 0.159533
2023/07/04 22:03:07.780, True, 0.674, 0.160220
2023/07/04 22:03:08.284, True, 0.995, 0.158770
2023/07/04 22:03:08.788, True, 0.663, 0.158083
2023/07/04 22:03:09.284, True, 0.674, 0.158618
2023/07/04 22:03:09.788, True, 0.995, 0.159838
2023/07/04 22:03:10.292, True, 0.663, 0.158541
2023/07/04 22:03:10.788, True, 0.674, 0.157549
2023/07/04 22:03:11.292, True, 0.663, 0.159228
2023/07/04 22:03:11.788, True, 0.674, 0.159075
2023/07/04 22:03:12.292, True, 0.994, 0.157168
2023/07/04 22:03:12.796, True, 0.663, 0.159457
2023/07/04 22:03:13.292, True, 0.675, 0.159380
2023/07/04 22:03:13.796, True, 0.994, 0.158083
2023/07/04 22:03:14.300, True, 0.663, 0.159686
2023/07/04 22:03:14.804, True, 0.995, 0.157702
2023/07/04 22:03:15.300, True, 0.674, 0.160372
2023/07/04 22:03:15.804, True, 0.664, 0.157702
2023/07/04 22:03:16.300, True, 1.010, 0.161212
2023/07/04 22:03:16.803, True, 0.663, 0.160906
2023/07/04 22:03:17.308, True, 0.663, 0.158846
2023/07/04 22:03:17.804, True, 0.674, 0.160372
2023/07/04 22:03:18.308, True, 0.995, 0.160296
2023/07/04 22:03:18.812, True, 0.663, 0.159228
2023/07/04 22:03:19.308, True, 0.674, 0.158923
2023/07/04 22:03:19.812, True, 0.995, 0.158236
2023/07/04 22:03:20.316, True, 0.663, 0.159762
2023/07/04 22:03:20.812, True, 0.674, 0.159457
2023/07/04 22:03:21.316, True, 0.996, 0.157321
2023/07/04 22:03:21.820, True, 0.662, 0.159838
2023/07/04 22:03:22.316, True, 0.674, 0.159457
2023/07/04 22:03:22.820, True, 0.663, 0.158007
2023/07/04 22:03:23.324, True, 0.995, 0.158541
2023/07/04 22:03:23.828, True, 0.663, 0.156939
2023/07/04 22:03:24.324, True, 0.674, 0.159762
2023/07/04 22:03:24.828, True, 0.995, 0.159915
2023/07/04 22:03:25.324, True, 0.674, 0.160372
2023/07/04 22:03:25.828, True, 0.663, 0.160449
2023/07/04 22:03:26.332, True, 0.995, 0.160525
2023/07/04 22:03:26.828, True, 0.674, 0.160372
2023/07/04 22:03:27.332, True, 0.663, 0.158389
2023/07/04 22:03:27.836, True, 0.663, 0.158083
2023/07/04 22:03:28.332, True, 1.011, 0.159991
2023/07/04 22:03:28.836, True, 0.664, 0.158007
2023/07/04 22:03:29.340, True, 0.663, 0.158694
2023/07/04 22:03:29.844, True, 0.663, 0.164187
2023/07/04 22:03:30.340, True, 1.011, 0.158846
2023/07/04 22:03:30.844, True, 0.663, 0.160296
2023/07/04 22:03:31.348, True, 0.663, 0.159380
2023/07/04 22:03:31.844, True, 0.674, 0.158389
2023/07/04 22:03:32.348, True, 0.995, 0.160296
2023/07/04 22:03:32.852, True, 0.663, 0.159838
2023/07/04 22:03:33.348, True, 0.674, 0.159228
2023/07/04 22:03:33.852, True, 0.995, 0.159380
2023/07/04 22:03:34.356, True, 0.663, 0.158846
2023/07/04 22:03:34.852, True, 0.674, 0.158007
2023/07/04 22:03:35.356, True, 0.995, 0.161212
2023/07/04 22:03:35.860, True, 0.664, 0.159457
2023/07/04 22:03:36.355, True, 0.673, 0.158770
2023/07/04 22:03:36.860, True, 0.664, 0.159915
2023/07/04 22:03:37.363, True, 0.994, 0.157397
2023/07/04 22:03:37.860, True, 0.674, 0.160143
2023/07/04 22:03:38.364, True, 0.663, 0.159457
2023/07/04 22:03:38.868, True, 0.995, 0.158694
2023/07/04 22:03:39.364, True, 0.674, 0.159915
2023/07/04 22:03:39.868, True, 0.663, 0.160296
2023/07/04 22:03:40.364, True, 1.011, 0.159152
2023/07/04 22:03:40.868, True, 0.664, 0.159609
2023/07/04 22:03:41.372, True, 0.663, 0.160067
2023/07/04 22:03:41.868, True, 0.674, 0.158694
2023/07/04 22:03:42.372, True, 0.994, 0.159609
2023/07/04 22:03:42.875, True, 0.663, 0.159075
2023/07/04 22:03:43.371, True, 0.674, 0.158541
2023/07/04 22:03:43.875, True, 0.994, 0.160143
2023/07/04 22:03:44.379, True, 0.663, 0.157931
2023/07/04 22:03:44.883, True, 0.663, 0.158694
2023/07/04 22:03:45.379, True, 1.011, 0.159075
2023/07/04 22:03:45.884, True, 0.663, 0.164721
2023/07/04 22:03:46.387, True, 0.663, 0.158694
2023/07/04 22:03:46.884, True, 0.674, 0.160067
2023/07/04 22:03:47.388, True, 0.995, 0.157702
2023/07/04 22:03:47.891, True, 0.663, 0.159609
2023/07/04 22:03:48.388, True, 0.674, 0.157626
2023/07/04 22:03:48.892, True, 0.663, 0.160754
2023/07/04 22:03:49.396, True, 0.996, 0.158083
2023/07/04 22:03:49.892, True, 0.674, 0.158770
2023/07/04 22:03:50.396, True, 0.994, 0.161212
2023/07/04 22:03:50.891, True, 0.674, 0.158083
2023/07/04 22:03:51.396, True, 0.663, 0.158618
2023/07/04 22:03:51.899, True, 0.995, 0.158389
2023/07/04 22:03:52.404, True, 0.664, 0.159152
2023/07/04 22:03:52.900, True, 0.675, 0.160220
2023/07/04 22:03:53.404, True, 0.993, 0.159838
2023/07/04 22:03:53.900, True, 0.674, 0.156786
2023/07/04 22:03:54.404, True, 0.664, 0.162280
2023/07/04 22:03:54.908, True, 0.994, 0.160678
2023/07/04 22:03:55.404, True, 0.674, 0.160449
2023/07/04 22:03:55.907, True, 0.664, 0.161364
2023/07/04 22:03:56.412, True, 0.996, 0.158999
2023/07/04 22:03:56.908, True, 0.672, 0.159838
2023/07/04 22:03:57.412, True, 0.664, 0.161517
2023/07/04 22:03:57.916, True, 0.664, 0.160067
2023/07/04 22:03:58.412, True, 1.011, 0.159762
2023/07/04 22:03:58.916, True, 0.662, 0.159152
2023/07/04 22:03:59.420, True, 0.663, 0.158846
2023/07/04 22:03:59.924, True, 0.996, 0.158541
2023/07/04 22:04:00.420, True, 0.674, 0.156786
2023/07/04 22:04:00.924, True, 0.662, 0.158541
2023/07/04 22:04:01.428, True, 0.664, 0.158389
2023/07/04 22:04:01.924, True, 1.010, 0.159686
2023/07/04 22:04:02.428, True, 0.662, 0.159533
2023/07/04 22:04:02.932, True, 0.663, 0.158999
2023/07/04 22:04:03.428, True, 1.011, 0.156786
2023/07/04 22:04:03.932, True, 0.663, 0.158618
2023/07/04 22:04:04.428, True, 0.674, 0.156710
2023/07/04 22:04:04.932, True, 0.663, 0.159762
2023/07/04 22:04:05.436, True, 0.663, 0.156863
2023/07/04 22:04:05.932, True, 0.674, 0.160296
2023/07/04 22:04:06.436, True, 0.996, 0.159762
2023/07/04 22:04:06.940, True, 0.662, 0.160754
2023/07/04 22:04:07.436, True, 0.674, 0.159915
2023/07/04 22:04:07.940, True, 0.662, 0.158618
2023/07/04 22:04:08.436, True, 1.011, 0.156939
2023/07/04 22:04:08.940, True, 0.663, 0.160525
2023/07/04 22:04:09.443, True, 0.664, 0.159228
2023/07/04 22:04:09.948, True, 0.994, 0.159380
2023/07/04 22:04:10.444, True, 0.675, 0.156252
2023/07/04 22:04:10.948, True, 0.663, 0.158846
2023/07/04 22:04:11.452, True, 0.663, 0.158389
2023/07/04 22:04:11.948, True, 1.011, 0.159915
2023/07/04 22:04:12.452, True, 0.663, 0.157397
2023/07/04 22:04:12.956, True, 0.663, 0.159152
2023/07/04 22:04:13.452, True, 0.674, 0.158694
2023/07/04 22:04:13.956, True, 0.995, 0.157321